Time,TemperatureF,DewpointF,PressureIn,WindDirection,WindDirectionDegrees,WindSpeedMPH,WindSpeedGustMPH,Humidity,HourlyPrecipIn,Conditions,Clouds,dailyrainin,SoftwareType,DateUTC
2013-02-16 00:14:00,43.9,27.9,29.80,NW,315,1.1,-999.0,53,-99.99,,,0.00,Acu-Link.com,2013-02-16 05:14:00,
2013-02-16 00:30:00,43.2,28.1,29.79,West,270,0.0,-999.0,55,-99.99,,,0.00,Acu-Link.com,2013-02-16 05:30:00,
2013-02-16 00:45:00,42.3,28.2,29.79,East,90,0.0,-999.0,57,-99.99,,,0.00,Acu-Link.com,2013-02-16 05:45:00,
2013-02-16 01:00:00,41.5,27.8,29.79,SE,135,0.0,-999.0,58,-99.99,,,0.00,Acu-Link.com,2013-02-16 06:00:00,
2013-02-16 01:15:00,40.5,28.9,29.80,WSW,247,0.0,-999.0,63,-99.99,,,0.00,Acu-Link.com,2013-02-16 06:15:00,
2013-02-16 01:30:00,39.7,28.2,29.79,WSW,247,0.0,-999.0,63,-99.99,,,0.00,Acu-Link.com,2013-02-16 06:30:00,
2013-02-16 01:45:00,39.0,28.6,29.79,West,270,0.0,-999.0,66,-99.99,,,0.00,Acu-Link.com,2013-02-16 06:45:00,
2013-02-16 02:00:00,38.5,28.5,29.79,East,90,0.0,-999.0,67,-99.99,,,0.00,Acu-Link.com,2013-02-16 07:00:00,
2013-02-16 02:15:00,38.7,28.7,29.79,NW,315,0.0,-999.0,67,-99.99,,,0.00,Acu-Link.com,2013-02-16 07:15:00,
2013-02-16 02:30:00,39.4,29.4,29.79,NNW,337,0.0,-999.0,67,-99.99,,,0.00,Acu-Link.com,2013-02-16 07:30:00,
2013-02-16 02:46:00,39.7,28.9,29.79,NNE,22,1.7,-999.0,65,-99.99,,,0.00,Acu-Link.com,2013-02-16 07:46:00,
2013-02-16 03:01:00,40.3,28.7,29.79,ENE,67,0.0,-999.0,63,-99.99,,,0.00,Acu-Link.com,2013-02-16 08:01:00,
2013-02-16 03:16:00,40.8,28.8,29.79,ESE,112,0.0,-999.0,62,-99.99,,,0.00,Acu-Link.com,2013-02-16 08:16:00,
2013-02-16 03:31:00,41.0,28.6,29.78,SSE,157,0.0,-999.0,61,-99.99,,,0.00,Acu-Link.com,2013-02-16 08:31:00,
2013-02-16 03:46:00,41.2,28.4,29.78,SSW,202,0.0,-999.0,60,-99.99,,,0.00,Acu-Link.com,2013-02-16 08:46:00,
2013-02-16 04:01:00,41.2,28.4,29.78,West,270,0.0,-999.0,60,-99.99,,,0.00,Acu-Link.com,2013-02-16 09:01:00,
2013-02-16 04:18:00,41.2,28.4,29.78,North,0,0.0,-999.0,60,-99.99,,,0.00,Acu-Link.com,2013-02-16 09:18:00,
2013-02-16 04:33:00,41.0,26.9,29.78,ESE,112,0.0,-999.0,57,-99.99,,,0.00,Acu-Link.com,2013-02-16 09:33:00,
2013-02-16 04:48:00,41.0,26.9,29.78,East,90,0.0,-999.0,57,-99.99,,,0.00,Acu-Link.com,2013-02-16 09:48:00,
2013-02-16 05:03:00,41.0,28.6,29.78,SE,135,0.0,-999.0,61,-99.99,,,0.00,Acu-Link.com,2013-02-16 10:03:00,
2013-02-16 05:19:00,40.3,30.6,29.79,North,0,1.7,-999.0,68,-99.99,,,0.00,Acu-Link.com,2013-02-16 10:19:00,
2013-02-16 05:34:00,39.6,30.6,29.79,South,180,0.0,-999.0,70,-99.99,,,0.00,Acu-Link.com,2013-02-16 10:34:00,
2013-02-16 05:49:00,39.2,30.9,29.79,East,90,2.2,-999.0,72,-99.99,,,0.00,Acu-Link.com,2013-02-16 10:49:00,
2013-02-16 06:04:00,38.7,30.1,29.79,East,90,1.7,-999.0,71,-99.99,,,0.00,Acu-Link.com,2013-02-16 11:04:00,
2013-02-16 06:19:00,38.5,30.6,29.79,NNE,22,0.0,-999.0,73,-99.99,,,0.00,Acu-Link.com,2013-02-16 11:19:00,
2013-02-16 06:34:00,38.3,30.4,29.79,ESE,112,0.0,-999.0,73,-99.99,,,0.00,Acu-Link.com,2013-02-16 11:34:00,
2013-02-16 06:49:00,38.1,30.9,29.80,West,270,0.0,-999.0,75,-99.99,,,0.00,Acu-Link.com,2013-02-16 11:49:00,
2013-02-16 07:05:00,38.1,30.2,29.79,NNW,337,0.0,-999.0,73,-99.99,,,0.00,Acu-Link.com,2013-02-16 12:05:00,
2013-02-16 07:20:00,38.1,30.2,29.79,West,270,0.0,-999.0,73,-99.99,,,0.00,Acu-Link.com,2013-02-16 12:20:00,
2013-02-16 07:35:00,38.1,30.6,29.78,SE,135,0.0,-999.0,74,-99.99,,,0.00,Acu-Link.com,2013-02-16 12:35:00,
2013-02-16 07:50:00,38.1,30.9,29.79,ESE,112,0.0,-999.0,75,-99.99,,,0.00,Acu-Link.com,2013-02-16 12:50:00,
2013-02-16 08:05:00,38.1,31.2,29.80,ENE,67,0.0,-999.0,76,-99.99,,,0.00,Acu-Link.com,2013-02-16 13:05:00,
2013-02-16 08:20:00,38.5,31.6,29.79,East,90,1.7,-999.0,76,-99.99,,,0.00,Acu-Link.com,2013-02-16 13:20:00,
2013-02-16 08:35:00,38.3,31.1,29.79,ESE,112,1.7,-999.0,75,-99.99,,,0.00,Acu-Link.com,2013-02-16 13:35:00,
2013-02-16 08:50:00,38.1,30.9,29.79,ENE,67,1.7,-999.0,75,-99.99,,,0.00,Acu-Link.com,2013-02-16 13:50:00,
2013-02-16 09:05:00,38.8,31.9,29.80,ESE,112,0.0,-999.0,76,-99.99,,,0.00,Acu-Link.com,2013-02-16 14:05:00,
2013-02-16 09:21:00,39.0,31.8,29.78,East,90,1.7,-999.0,75,-99.99,,,0.00,Acu-Link.com,2013-02-16 14:21:00,
2013-02-16 09:36:00,39.2,31.3,29.78,ESE,112,1.1,-999.0,73,-99.99,,,0.00,Acu-Link.com,2013-02-16 14:36:00,
2013-02-16 09:51:00,39.2,31.6,29.78,ESE,112,1.7,-999.0,74,-99.99,,,0.00,Acu-Link.com,2013-02-16 14:51:00,
2013-02-16 10:06:00,39.9,32.0,29.78,ESE,112,1.7,-999.0,73,-99.99,,,0.00,Acu-Link.com,2013-02-16 15:06:00,
2013-02-16 10:21:00,40.1,31.5,29.77,ENE,67,1.1,-999.0,71,-99.99,,,0.00,Acu-Link.com,2013-02-16 15:21:00,
2013-02-16 10:36:00,40.5,31.1,29.77,ENE,67,2.7,-999.0,69,-99.99,,,0.00,Acu-Link.com,2013-02-16 15:36:00,
2013-02-16 10:51:00,40.5,30.8,29.78,East,90,0.0,-999.0,68,-99.99,,,0.00,Acu-Link.com,2013-02-16 15:51:00,
2013-02-16 11:06:00,40.8,30.7,29.77,SE,135,0.0,-999.0,67,-99.99,,,0.00,Acu-Link.com,2013-02-16 16:06:00,
2013-02-16 11:21:00,41.5,31.0,29.76,SE,135,1.7,-999.0,66,-99.99,,,0.00,Acu-Link.com,2013-02-16 16:21:00,
2013-02-16 11:37:00,42.3,31.0,29.76,NE,45,1.1,-999.0,64,-99.99,,,0.00,Acu-Link.com,2013-02-16 16:37:00,
2013-02-16 11:52:00,41.9,31.0,29.75,East,90,1.1,-999.0,65,-99.99,,,0.00,Acu-Link.com,2013-02-16 16:52:00,
2013-02-16 12:07:00,41.5,30.6,29.75,South,180,2.7,-999.0,65,-99.99,,,0.00,Acu-Link.com,2013-02-16 17:07:00,
2013-02-16 12:22:00,41.2,30.0,29.74,SSE,157,0.0,-999.0,64,-99.99,,,0.00,Acu-Link.com,2013-02-16 17:22:00,
2013-02-16 12:37:00,41.5,30.2,29.73,SSE,157,1.7,-999.0,64,-99.99,,,0.00,Acu-Link.com,2013-02-16 17:37:00,
2013-02-16 12:52:00,43.3,29.9,29.72,West,270,1.7,-999.0,59,-99.99,,,0.00,Acu-Link.com,2013-02-16 17:52:00,
2013-02-16 13:07:00,44.2,30.8,29.71,SSW,202,1.7,-999.0,59,-99.99,,,0.00,Acu-Link.com,2013-02-16 18:07:00,
2013-02-16 13:22:00,45.9,29.7,29.70,West,270,2.2,-999.0,53,-99.99,,,0.00,Acu-Link.com,2013-02-16 18:22:00,
2013-02-16 13:37:00,44.2,28.6,29.69,South,180,1.7,-999.0,54,-99.99,,,0.00,Acu-Link.com,2013-02-16 18:37:00,
2013-02-16 13:53:00,43.2,29.9,29.68,NE,45,1.7,-999.0,59,-99.99,,,0.00,Acu-Link.com,2013-02-16 18:53:00,
2013-02-16 14:08:00,42.3,30.6,29.68,NNW,337,0.0,-999.0,63,-99.99,,,0.00,Acu-Link.com,2013-02-16 19:08:00,
2013-02-16 14:23:00,40.5,29.7,29.69,East,90,3.2,-999.0,65,-99.99,,,0.00,Acu-Link.com,2013-02-16 19:23:00,
2013-02-16 14:38:00,37.2,28.3,29.69,ESE,112,0.0,-999.0,70,-99.99,,,0.01,Acu-Link.com,2013-02-16 19:38:00,
2013-02-16 14:53:00,35.4,28.3,29.70,NNE,22,0.0,-999.0,75,-99.99,,,0.01,Acu-Link.com,2013-02-16 19:53:00,
2013-02-16 15:08:00,34.5,28.0,29.70,NNE,22,0.0,-999.0,77,-99.99,,,0.01,Acu-Link.com,2013-02-16 20:08:00,
2013-02-16 15:23:00,33.8,28.0,29.70,NNW,337,1.7,-999.0,79,-99.99,,,0.01,Acu-Link.com,2013-02-16 20:23:00,
2013-02-16 15:38:00,33.6,28.1,29.70,North,0,1.1,-999.0,80,-99.99,,,0.01,Acu-Link.com,2013-02-16 20:38:00,
2013-02-16 15:53:00,33.4,28.2,29.70,NNW,337,0.0,-999.0,81,-99.99,,,0.01,Acu-Link.com,2013-02-16 20:53:00,
2013-02-16 16:08:00,33.4,28.2,29.70,NNW,337,0.0,-999.0,81,-99.99,,,0.01,Acu-Link.com,2013-02-16 21:08:00,
2013-02-16 16:24:00,33.4,28.2,29.70,ESE,112,1.1,-999.0,81,-99.99,,,0.01,Acu-Link.com,2013-02-16 21:24:00,
2013-02-16 16:39:00,34.5,29.3,29.71,ESE,112,0.0,-999.0,81,-99.99,,,0.01,Acu-Link.com,2013-02-16 21:39:00,
2013-02-16 16:54:00,35.2,29.7,29.71,West,270,0.0,-999.0,80,-99.99,,,0.01,Acu-Link.com,2013-02-16 21:54:00,
2013-02-16 17:09:00,35.4,29.2,29.72,WSW,247,0.0,-999.0,78,-99.99,,,0.01,Acu-Link.com,2013-02-16 22:09:00,
2013-02-16 17:24:00,35.1,28.9,29.71,West,270,0.0,-999.0,78,-99.99,,,0.01,Acu-Link.com,2013-02-16 22:24:00,
2013-02-16 17:39:00,34.3,28.2,29.72,West,270,0.0,-999.0,78,-99.99,,,0.01,Acu-Link.com,2013-02-16 22:39:00,
2013-02-16 17:55:00,33.6,27.8,29.73,WNW,292,0.0,-999.0,79,-99.99,,,0.01,Acu-Link.com,2013-02-16 22:55:00,
2013-02-16 18:10:00,32.9,26.2,29.73,SW,225,0.0,-999.0,76,-99.99,,,0.01,Acu-Link.com,2013-02-16 23:10:00,
2013-02-16 18:25:00,32.4,24.7,29.74,West,270,0.0,-999.0,73,-99.99,,,0.01,Acu-Link.com,2013-02-16 23:25:00,
2013-02-16 18:40:00,31.8,24.5,29.76,West,270,0.0,-999.0,74,-99.99,,,0.01,Acu-Link.com,2013-02-16 23:40:00,
2013-02-16 18:55:00,31.5,22.2,29.77,NNW,337,0.0,-999.0,68,-99.99,,,0.01,Acu-Link.com,2013-02-16 23:55:00,
2013-02-16 19:10:00,31.1,21.4,29.78,SE,135,0.0,-999.0,67,-99.99,,,0.01,Acu-Link.com,2013-02-17 00:10:00,
2013-02-16 19:26:00,30.4,21.1,29.78,SSE,157,0.0,-999.0,68,-99.99,,,0.01,Acu-Link.com,2013-02-17 00:26:00,
2013-02-16 19:41:00,29.8,20.5,29.78,SW,225,0.0,-999.0,68,-99.99,,,0.01,Acu-Link.com,2013-02-17 00:41:00,
2013-02-16 19:56:00,29.5,19.9,29.79,NNW,337,0.0,-999.0,67,-99.99,,,0.01,Acu-Link.com,2013-02-17 00:56:00,
2013-02-16 20:11:00,28.9,20.0,29.80,West,270,0.0,-999.0,69,-99.99,,,0.01,Acu-Link.com,2013-02-17 01:11:00,
2013-02-16 20:26:00,28.6,19.7,29.80,WSW,247,0.0,-999.0,69,-99.99,,,0.01,Acu-Link.com,2013-02-17 01:26:00,
2013-02-16 20:41:00,28.6,18.7,29.81,WNW,292,0.0,-999.0,66,-99.99,,,0.01,Acu-Link.com,2013-02-17 01:41:00,
2013-02-16 20:56:00,28.2,19.0,29.82,West,270,0.0,-999.0,68,-99.99,,,0.01,Acu-Link.com,2013-02-17 01:56:00,
2013-02-16 21:11:00,27.9,19.1,29.82,NNW,337,0.0,-999.0,69,-99.99,,,0.01,Acu-Link.com,2013-02-17 02:11:00,
2013-02-16 21:26:00,27.5,18.7,29.83,East,90,0.0,-999.0,69,-99.99,,,0.01,Acu-Link.com,2013-02-17 02:26:00,
2013-02-16 21:42:00,27.1,19.0,29.84,SE,135,0.0,-999.0,71,-99.99,,,0.01,Acu-Link.com,2013-02-17 02:42:00,
2013-02-16 21:57:00,27.0,18.9,29.84,East,90,0.0,-999.0,71,-99.99,,,0.01,Acu-Link.com,2013-02-17 02:57:00,
2013-02-16 22:12:00,27.3,17.5,29.85,NNE,22,0.0,-999.0,66,-99.99,,,0.01,Acu-Link.com,2013-02-17 03:12:00,
2013-02-16 22:27:00,27.5,17.3,29.85,North,0,0.0,-999.0,65,-99.99,,,0.01,Acu-Link.com,2013-02-17 03:27:00,
2013-02-16 22:42:00,27.5,17.3,29.86,NW,315,0.0,-999.0,65,-99.99,,,0.01,Acu-Link.com,2013-02-17 03:42:00,
2013-02-16 22:57:00,27.5,17.3,29.86,SSE,157,0.0,-999.0,65,-99.99,,,0.01,Acu-Link.com,2013-02-17 03:57:00,
2013-02-16 23:12:00,27.1,16.2,29.86,ESE,112,0.0,-999.0,63,-99.99,,,0.01,Acu-Link.com,2013-02-17 04:12:00,
2013-02-16 23:28:00,27.0,16.8,29.86,SW,225,0.0,-999.0,65,-99.99,,,0.01,Acu-Link.com,2013-02-17 04:28:00,
2013-02-16 23:43:00,26.6,15.7,29.85,NNW,337,0.0,-999.0,63,-99.99,,,0.01,Acu-Link.com,2013-02-17 04:43:00,
2013-02-16 23:58:00,26.6,16.1,29.86,ENE,67,0.0,-999.0,64,-99.99,,,0.01,Acu-Link.com,2013-02-17 04:58:00,